CLH8BS EDDC-LOWS

Flight info

Callsign CLH8BS
Flight time 0h 43m
Altitude 30000
Route MAREM8E MAREM DCT VESUB T106 NETES T700 BADIT BADIT2R
Aircraft E195/M-SDE3GILORVW/S

Departure

Time 2026-04-27 19:49
Airport Dresden Airport (EDDC)

Arrival

Time 2026-04-27 20:33
Airport Salzburg Airport (LOWS)
Time Latitude Longitude Altitude Speed Heading
2026-04-27 19:20 51.12630 13.76400 761 ft 0 kts 129°
2026-04-27 19:40 51.12631 13.76399 761 ft 1 kts 129°
2026-04-27 19:41 51.12641 13.76383 761 ft 2 kts 150°
2026-04-27 19:41 51.12655 13.76373 761 ft 2 kts 166°
2026-04-27 19:41 51.12670 13.76371 761 ft 2 kts 184°
2026-04-27 19:41 51.12685 13.76375 761 ft 2 kts 201°
2026-04-27 19:42 51.12698 13.76387 761 ft 2 kts 219°
2026-04-27 19:42 51.12709 13.76403 761 ft 2 kts 222°
2026-04-27 19:42 51.12718 13.76416 761 ft 0 kts 220°
2026-04-27 19:42 51.12719 13.76417 761 ft 0 kts 221°
2026-04-27 19:45 51.12717 13.76414 761 ft 1 kts 221°
2026-04-27 19:45 51.12702 13.76394 761 ft 3 kts 221°
2026-04-27 19:45 51.12677 13.76359 761 ft 5 kts 221°
2026-04-27 19:45 51.12640 13.76309 761 ft 8 kts 221°
2026-04-27 19:46 51.12589 13.76239 761 ft 10 kts 221°
2026-04-27 19:46 51.12547 13.76182 761 ft 4 kts 221°
2026-04-27 19:46 51.12542 13.76128 761 ft 5 kts 297°
2026-04-27 19:46 51.12549 13.76071 761 ft 6 kts 240°
2026-04-27 19:47 51.12515 13.76013 761 ft 8 kts 223°
2026-04-27 19:47 51.12467 13.75948 761 ft 10 kts 220°
2026-04-27 19:47 51.12408 13.75868 761 ft 11 kts 221°
2026-04-27 19:47 51.12371 13.75785 761 ft 9 kts 264°
2026-04-27 19:48 51.12390 13.75687 761 ft 9 kts 292°
2026-04-27 19:48 51.12418 13.75583 761 ft 10 kts 299°
2026-04-27 19:48 51.12470 13.75505 761 ft 10 kts 348°
2026-04-27 19:48 51.12528 13.75556 761 ft 10 kts 41°
2026-04-27 19:49 51.12602 13.75659 761 ft 19 kts 41°
2026-04-27 19:49 51.12919 13.76094 761 ft 102 kts 40°
2026-04-27 19:49 51.13641 13.77083 805 ft 166 kts 40°
2026-04-27 19:49 51.14873 13.78720 1777 ft 183 kts 40°
2026-04-27 19:50 51.15525 13.79632 2360 ft 190 kts 43°
2026-04-27 19:50 51.16484 13.81008 3386 ft 191 kts 40°
2026-04-27 19:50 51.17470 13.82421 4233 ft 201 kts 42°
2026-04-27 19:50 51.18494 13.84018 4977 ft 209 kts 47°
2026-04-27 19:51 51.19232 13.85923 5908 ft 206 kts 71°
2026-04-27 19:51 51.19351 13.88958 6970 ft 208 kts 91°
2026-04-27 19:51 51.19313 13.90400 7670 ft 197 kts 90°
2026-04-27 19:51 51.18904 13.93385 8289 ft 220 kts 114°
2026-04-27 19:52 51.18365 13.94800 8820 ft 220 kts 127°
2026-04-27 19:52 51.17313 13.96581 9469 ft 226 kts 133°
2026-04-27 19:52 51.16208 13.98398 10009 ft 239 kts 133°
2026-04-27 19:52 51.14960 14.00344 10359 ft 250 kts 135°
2026-04-27 19:53 51.12377 14.04253 11568 ft 272 kts 134°
2026-04-27 19:53 51.11079 14.06594 12196 ft 280 kts 128°
2026-04-27 19:53 51.09792 14.08994 12843 ft 291 kts 131°
2026-04-27 19:54 51.08385 14.11408 13396 ft 303 kts 133°
2026-04-27 19:54 51.06897 14.13690 14334 ft 297 kts 149°
2026-04-27 19:54 51.04952 14.14591 14969 ft 297 kts 187°
2026-04-27 19:54 51.03019 14.13512 15233 ft 305 kts 224°
2026-04-27 19:55 51.01739 14.10883 15807 ft 305 kts 244°
2026-04-27 19:55 51.00629 14.07894 16161 ft 325 kts 240°
2026-04-27 19:55 50.99272 14.04896 16236 ft 336 kts 233°
2026-04-27 19:55 50.97600 14.02250 16020 ft 339 kts 227°
2026-04-27 19:56 50.95901 13.99702 15997 ft 337 kts 227°
2026-04-27 19:56 50.94208 13.97141 15979 ft 336 kts 227°
2026-04-27 19:56 50.92529 13.94592 15991 ft 336 kts 227°
2026-04-27 19:56 50.90844 13.92034 16151 ft 335 kts 227°
2026-04-27 19:57 50.89137 13.89442 16180 ft 337 kts 227°
2026-04-27 19:57 50.87400 13.86807 16190 ft 337 kts 227°
2026-04-27 19:57 50.85714 13.84254 16189 ft 337 kts 227°
2026-04-27 19:57 50.84030 13.81705 16185 ft 336 kts 227°
2026-04-27 19:58 50.82338 13.79145 16189 ft 336 kts 227°
2026-04-27 19:58 50.80649 13.76594 16189 ft 336 kts 227°
2026-04-27 19:58 50.78929 13.73996 16398 ft 352 kts 227°
2026-04-27 19:58 50.77137 13.71298 17259 ft 354 kts 227°
2026-04-27 19:59 50.75387 13.68664 18324 ft 349 kts 228°
2026-04-27 19:59 50.73636 13.66031 19288 ft 346 kts 228°
2026-04-27 19:59 50.71845 13.63495 20047 ft 352 kts 218°
2026-04-27 19:59 50.69585 13.61912 20673 ft 365 kts 202°
2026-04-27 20:00 50.67162 13.60693 21304 ft 370 kts 202°
2026-04-27 20:00 50.64659 13.59440 21970 ft 374 kts 202°
2026-04-27 20:00 50.62202 13.58212 22618 ft 377 kts 202°
2026-04-27 20:00 50.59670 13.56949 23260 ft 380 kts 202°
2026-04-27 20:01 50.57155 13.55696 23849 ft 384 kts 202°
2026-04-27 20:01 50.54578 13.54415 24477 ft 387 kts 203°
2026-04-27 20:01 50.52019 13.53142 25087 ft 391 kts 203°
2026-04-27 20:01 50.49412 13.51847 25706 ft 393 kts 203°
2026-04-27 20:02 50.46796 13.50550 26306 ft 396 kts 204°
2026-04-27 20:02 50.44156 13.49242 26887 ft 399 kts 204°
2026-04-27 20:02 50.41498 13.47927 27449 ft 402 kts 204°
2026-04-27 20:02 50.38851 13.46618 27987 ft 405 kts 204°
2026-04-27 20:03 50.36131 13.45276 28523 ft 409 kts 204°
2026-04-27 20:03 50.33435 13.43947 29068 ft 411 kts 204°
2026-04-27 20:03 50.30705 13.42603 29609 ft 413 kts 204°
2026-04-27 20:03 50.27958 13.41252 30081 ft 414 kts 204°
2026-04-27 20:04 50.22325 13.38482 30191 ft 438 kts 204°
2026-04-27 20:04 50.16416 13.35592 30182 ft 448 kts 204°
2026-04-27 20:05 50.10463 13.32685 30185 ft 447 kts 203°
2026-04-27 20:05 50.04517 13.29788 30186 ft 448 kts 203°
2026-04-27 20:06 49.98586 13.26906 30182 ft 448 kts 202°
2026-04-27 20:06 49.92639 13.24024 30175 ft 448 kts 202°
2026-04-27 20:07 49.86710 13.21159 30174 ft 447 kts 203°
2026-04-27 20:07 49.80745 13.18282 30173 ft 446 kts 202°
2026-04-27 20:08 49.74798 13.15422 30165 ft 448 kts 203°
2026-04-27 20:08 49.68840 13.12565 30171 ft 440 kts 203°
2026-04-27 20:09 49.65997 13.11207 29897 ft 424 kts 203°
2026-04-27 20:09 49.63220 13.09877 29209 ft 419 kts 203°
2026-04-27 20:09 49.60454 13.08554 28317 ft 419 kts 203°
2026-04-27 20:09 49.57666 13.07224 27404 ft 419 kts 202°
2026-04-27 20:10 49.54904 13.05908 26604 ft 416 kts 202°
2026-04-27 20:10 49.52207 13.04625 25882 ft 411 kts 202°
2026-04-27 20:10 49.49437 13.03308 25232 ft 407 kts 202°
2026-04-27 20:10 49.46748 13.02031 25179 ft 408 kts 202°
2026-04-27 20:11 49.44080 13.00766 25157 ft 407 kts 202°
2026-04-27 20:11 49.41442 12.99377 25153 ft 401 kts 209°
2026-04-27 20:11 49.38919 12.97552 25160 ft 400 kts 211°
2026-04-27 20:11 49.36393 12.95707 25154 ft 401 kts 210°
2026-04-27 20:12 49.33867 12.93866 25152 ft 401 kts 210°
2026-04-27 20:12 49.31345 12.92029 25154 ft 401 kts 211°
2026-04-27 20:12 49.28814 12.90189 25148 ft 401 kts 211°
2026-04-27 20:12 49.26311 12.88371 25143 ft 401 kts 211°
2026-04-27 20:13 49.23770 12.86527 25148 ft 401 kts 211°
2026-04-27 20:13 49.21265 12.84709 25145 ft 401 kts 211°
2026-04-27 20:13 49.18728 12.82869 25147 ft 400 kts 211°
2026-04-27 20:13 49.16234 12.81062 25145 ft 399 kts 211°
2026-04-27 20:14 49.13686 12.79217 25144 ft 399 kts 211°
2026-04-27 20:14 49.11225 12.77440 24887 ft 386 kts 211°
2026-04-27 20:14 49.08815 12.75697 24165 ft 384 kts 211°
2026-04-27 20:14 49.06377 12.73938 23286 ft 386 kts 210°
2026-04-27 20:15 49.03941 12.72184 22462 ft 387 kts 210°
2026-04-27 20:15 49.01462 12.70402 21705 ft 385 kts 210°
2026-04-27 20:15 48.99078 12.68691 21057 ft 380 kts 210°
2026-04-27 20:15 48.96685 12.66974 20420 ft 376 kts 210°
2026-04-27 20:16 48.94326 12.65283 19779 ft 372 kts 209°
2026-04-27 20:16 48.91994 12.63654 19118 ft 370 kts 204°
2026-04-27 20:16 48.89428 12.63084 18419 ft 377 kts 179°
2026-04-27 20:16 48.86791 12.63668 17777 ft 375 kts 173°
2026-04-27 20:17 48.84253 12.64321 17161 ft 371 kts 173°
2026-04-27 20:17 48.81703 12.64985 16539 ft 367 kts 173°
2026-04-27 20:17 48.79182 12.65644 15931 ft 364 kts 173°
2026-04-27 20:17 48.76724 12.66288 15330 ft 360 kts 173°
2026-04-27 20:18 48.74231 12.66940 14722 ft 356 kts 172°
2026-04-27 20:18 48.71770 12.67584 14121 ft 353 kts 172°
2026-04-27 20:18 48.69330 12.68220 13520 ft 349 kts 172°
2026-04-27 20:18 48.66932 12.68845 12918 ft 346 kts 172°
2026-04-27 20:19 48.64573 12.69458 12391 ft 340 kts 172°
2026-04-27 20:19 48.62260 12.70060 12359 ft 319 kts 172°
2026-04-27 20:19 48.60113 12.70611 12210 ft 304 kts 173°
2026-04-27 20:19 48.58023 12.71064 11844 ft 299 kts 174°
2026-04-27 20:20 48.55911 12.71516 11336 ft 299 kts 174°
2026-04-27 20:20 48.53853 12.71956 10815 ft 299 kts 174°
2026-04-27 20:20 48.51766 12.72403 10324 ft 298 kts 174°
2026-04-27 20:20 48.49706 12.72843 10164 ft 299 kts 174°
2026-04-27 20:21 48.47621 12.73289 10137 ft 297 kts 174°
2026-04-27 20:21 48.45556 12.73730 10133 ft 295 kts 174°
2026-04-27 20:21 48.43507 12.74166 10137 ft 296 kts 174°
2026-04-27 20:21 48.41429 12.74609 10138 ft 295 kts 174°
2026-04-27 20:22 48.39379 12.75103 10133 ft 296 kts 169°
2026-04-27 20:22 48.37364 12.75830 10136 ft 296 kts 168°
2026-04-27 20:22 48.35357 12.76561 10140 ft 296 kts 168°
2026-04-27 20:22 48.33344 12.77295 10138 ft 292 kts 168°
2026-04-27 20:23 48.31370 12.78013 10095 ft 285 kts 168°
2026-04-27 20:23 48.29430 12.78719 10038 ft 284 kts 168°
2026-04-27 20:23 48.27490 12.79424 9963 ft 275 kts 168°
2026-04-27 20:23 48.25663 12.80088 9824 ft 263 kts 168°
2026-04-27 20:24 48.23900 12.80728 9468 ft 252 kts 168°
2026-04-27 20:24 48.22204 12.81342 9103 ft 246 kts 168°
2026-04-27 20:24 48.20521 12.81952 8834 ft 244 kts 168°
2026-04-27 20:24 48.18881 12.82546 8557 ft 240 kts 168°
2026-04-27 20:25 48.17272 12.83128 8125 ft 234 kts 168°
2026-04-27 20:25 48.15707 12.83694 7693 ft 231 kts 168°
2026-04-27 20:25 48.14144 12.84261 7359 ft 229 kts 168°
2026-04-27 20:25 48.12589 12.84824 7061 ft 227 kts 168°
2026-04-27 20:26 48.11073 12.85373 6766 ft 226 kts 167°
2026-04-27 20:26 48.09526 12.85933 6463 ft 224 kts 167°
2026-04-27 20:26 48.08010 12.86481 6163 ft 224 kts 167°
2026-04-27 20:26 48.06485 12.87032 5865 ft 223 kts 167°
2026-04-27 20:27 48.04957 12.87584 5569 ft 222 kts 166°
2026-04-27 20:27 48.03449 12.88129 5276 ft 221 kts 166°
2026-04-27 20:27 48.01940 12.88673 4985 ft 219 kts 166°
2026-04-27 20:27 48.00466 12.89194 4666 ft 218 kts 171°
2026-04-27 20:28 47.98945 12.89320 4366 ft 217 kts 178°
2026-04-27 20:28 47.97410 12.89365 4066 ft 216 kts 178°
2026-04-27 20:28 47.95978 12.89797 3887 ft 205 kts 154°
2026-04-27 20:28 47.94706 12.90651 3805 ft 192 kts 155°
2026-04-27 20:29 47.93483 12.91446 3675 ft 188 kts 155°
2026-04-27 20:29 47.92276 12.92219 3515 ft 189 kts 155°
2026-04-27 20:29 47.91056 12.92994 3360 ft 189 kts 155°
2026-04-27 20:29 47.89842 12.93763 3190 ft 183 kts 154°
2026-04-27 20:30 47.88694 12.94486 3002 ft 175 kts 155°
2026-04-27 20:30 47.87612 12.95168 2878 ft 155 kts 154°
2026-04-27 20:30 47.86646 12.95780 2721 ft 147 kts 154°
2026-04-27 20:30 47.85727 12.96361 2564 ft 141 kts 155°
2026-04-27 20:31 47.84829 12.96929 2380 ft 140 kts 155°
2026-04-27 20:31 47.83915 12.97494 2118 ft 141 kts 156°
2026-04-27 20:31 47.83011 12.98061 1920 ft 143 kts 156°
2026-04-27 20:31 47.82117 12.98634 1766 ft 140 kts 156°
2026-04-27 20:32 47.81222 12.99200 1592 ft 138 kts 156°
2026-04-27 20:32 47.80348 12.99758 1456 ft 137 kts 156°
2026-04-27 20:32 47.79487 13.00305 1409 ft 124 kts 156°
2026-04-27 20:32 47.78882 13.00678 1409 ft 66 kts 156°
2026-04-27 20:33 47.78659 13.00823 1409 ft 21 kts 155°
2026-04-27 20:33 47.78579 13.00848 1410 ft 10 kts 204°
2026-04-27 20:33 47.78543 13.00772 1412 ft 8 kts 246°
2026-04-27 20:33 47.78527 13.00683 1412 ft 9 kts 265°
2026-04-27 20:34 47.78559 13.00632 1412 ft 7 kts 332°
2026-04-27 20:34 47.78606 13.00594 1412 ft 8 kts 330°
2026-04-27 20:34 47.78659 13.00551 1412 ft 9 kts 336°
2026-04-27 20:34 47.78723 13.00510 1412 ft 10 kts 336°
2026-04-27 20:35 47.78798 13.00462 1412 ft 12 kts 338°
2026-04-27 20:35 47.78886 13.00408 1412 ft 14 kts 337°
2026-04-27 20:35 47.78982 13.00347 1412 ft 12 kts 336°
2026-04-27 20:35 47.79034 13.00311 1412 ft 8 kts 336°
2026-04-27 20:36 47.79094 13.00276 1413 ft 9 kts 338°
2026-04-27 20:36 47.79159 13.00235 1414 ft 10 kts 336°
2026-04-27 20:36 47.79234 13.00187 1413 ft 13 kts 336°
2026-04-27 20:36 47.79319 13.00134 1413 ft 6 kts 336°
2026-04-27 20:37 47.79353 13.00084 1413 ft 7 kts 280°
2026-04-27 20:37 47.79342 13.00013 1415 ft 6 kts 249°
2026-04-27 20:37 47.79324 12.99964 1417 ft 3 kts 235°
2026-04-27 20:37 47.79311 12.99950 1418 ft 2 kts 202°
2026-04-27 20:38 47.79288 12.99947 1418 ft 5 kts 173°
2026-04-27 20:38 47.79250 12.99987 1416 ft 10 kts 121°
2026-04-27 20:38 47.79236 13.00052 1415 ft 4 kts 100°
2026-04-27 20:38 47.79232 13.00077 1415 ft 0 kts 102°
2026-04-27 20:39 47.79231 13.00083 1415 ft 0 kts 102°
2026-04-27 20:39 47.79231 13.00084 1415 ft 0 kts 102°